Regional Weather Roundup
Issued by NWS

Home | Current Version | Previous Version | Graphics & Text | Print | Product List | Glossary On
Versions: 1 2 3 4 5 6 7 8 9 10 11 12 13 14 15 16 17 18 19 20 21 22 23 24 25 26 27 28 29 30 31 32 33 34 35 36 37 38 39 40 41 42 43 44 45 46 47 48 49 50
000
ASUS43 KLSX 301907
RWRMO

WEATHER SUMMARY FOR MISSOURI
NATIONAL WEATHER SERVICE SPRINGFIELD MO
200 PM CDT SUN AUG 30 2015

NOTE: "FAIR" INDICATES FEW OR NO CLOUDS BELOW 12,000 FEET WITH NO
       SIGNIFICANT WEATHER AND/OR OBSTRUCTIONS TO VISIBILITY.
       CURRENT SKY AND/OR WEATHER CONDITIONS ARE NOT AVAILABLE FOR
       CHILLICOTHE AND FARMINGTON.

MOZ001>031-035>038-043-044-053-054-302000-
...NORTHERN AND WESTERN MISSOURI...

CITY           SKY/WX    TMP DP  RH WIND       PRES   REMARKS
KANSAS CTY INT PTSUNNY   82  65  56 E9        30.03F
KANSAS C DTWN  MOSUNNY   82  70  66 E8        30.01F
LEE`S SUMMIT   PTSUNNY   81  70  69 E7        30.03F
ST JOSEPH      PTSUNNY   81  68  64 CALM      30.03F
CHILLICOTHE      N/A     84  71  65 VRB6      30.03F
KIRKSVILLE     PTSUNNY   83  67  58 E6        30.05F

$$
MOZ066>068-077>081-088>096-101>105-302000-
...SOUTHWEST MISSOURI...

CITY           SKY/WX    TMP DP  RH WIND       PRES   REMARKS
SPRINGFIELD    SUNNY     83  69  62 S10       30.04F
JOPLIN         MOSUNNY   86  70  58 SE5       30.01F HX  90

$$
MOZ032>034-039>042-045>050-055>058-069>072-302000-
...CENTRAL MISSOURI...

CITY           SKY/WX    TMP DP  RH WIND       PRES   REMARKS
COLUMBIA       PTSUNNY   85  70  60 E5        30.03F
JEFFERSON CITY PTSUNNY   85  69  58 NE5       30.01F
ROLLA          SUNNY     85  68  56 SE7       30.03S
SEDALIA        PTSUNNY   84  69  60 SE6       30.03F
WHITEMAN AFB   MOSUNNY   84  70  62 E5        30.01F
WARRENSBURG    PTSUNNY   82  70  65 NE3       30.02S
OSAGE BEACH    MOSUNNY   88  68  51 S6        30.03S HX  91

$$
MOZ051-052-059>065-302000-
...EAST CENTRAL MISSOURI...

CITY           SKY/WX    TMP DP  RH WIND       PRES   REMARKS
ST LOUIS INTL  PTSUNNY   88  67  49 SW6       30.03F HX  91
SPIRIT OF STL  MOSUNNY   87  69  54 CALM      30.01F HX  91
ST CHARLES     PTSUNNY   85  71  63 N5        30.01F HX  90

$$
MOZ072>076-082>087-097>100-106>115-302000-
...SOUTH CENTRAL AND SOUTHEAST MISSOURI...

CITY           SKY/WX    TMP DP  RH WIND       PRES   REMARKS
CAPE GIRARDEAU MOSUNNY   84  71  65 SE7       30.04F
FARMINGTON     MOSUNNY   88  70  55 SE9       30.07F HX  92
POPLAR BLUFF   MOSUNNY   86  72  62 S9        30.03F HX  92
WEST PLAINS    SUNNY     83  68  60 S7        30.07F

$$


USA.gov is the U.S. government's official web portal to all federal, state and local government web resources and services.